Location: Burla
(50.9568°N, 10.4983°E)
Time: 21:12:05
(UTC+00:00)

IGS 5A - Pass Details

Date: 18 January 2026
Orbit: 551 x 554 km, 97.4° (Epoch: 8 January)

Event Time Altitude Azimuth Distance (km) Brightness Sun altitude
Rises 05:46:06 0° 8° (N) 2,742 6.8 -13.1°
Reaches altitude 10° 05:48:18 10° 3° (N) 1,843 5.9 -12.8°
Maximum altitude 05:52:07 47° 290° (WNW) 742 3.5 -12.2°
Drops below altitude 10° 05:55:55 10° 216° (SW) 1,829 5.8 -11.6°
Sets 05:58:05 0° 210° (SSW) 2,718 6.7 -11.3°
